Time,TemperatureF,DewpointF,PressureIn,WindDirection,WindDirectionDegrees,WindSpeedMPH,WindSpeedGustMPH,Humidity,HourlyPrecipIn,Conditions,Clouds,dailyrainin,SoftwareType,DateUTC
2013-02-28 00:01:00,31.0,29.0,29.78,NW,319,4.0,8.0,94,0.00,,,0.19,,2013-02-28 06:01:00,
2013-02-28 00:11:00,31.0,29.0,29.78,NW,319,4.0,8.0,94,0.00,,,0.19,,2013-02-28 06:11:00,
2013-02-28 00:22:00,30.0,28.0,29.78,NNW,327,3.0,8.0,94,0.00,,,0.19,,2013-02-28 06:22:00,
2013-02-28 00:32:00,30.0,28.0,29.78,West,277,4.0,8.0,94,0.00,,,0.19,,2013-02-28 06:32:00,
2013-02-28 00:42:00,30.0,28.0,29.78,West,277,4.0,8.0,94,0.00,,,0.19,,2013-02-28 06:42:00,
2013-02-28 00:51:00,30.0,28.0,29.79,NNW,336,3.0,6.0,94,0.00,,,0.19,,2013-02-28 06:51:00,
2013-02-28 01:01:00,30.0,28.0,29.79,NW,311,3.0,7.0,94,0.00,,,0.19,,2013-02-28 07:01:00,
2013-02-28 01:11:00,30.0,28.0,29.79,NW,311,3.0,7.0,94,0.00,,,0.19,,2013-02-28 07:11:00,
2013-02-28 01:21:00,30.0,28.0,29.80,NW,321,3.0,8.0,94,0.00,,,0.19,,2013-02-28 07:21:00,
2013-02-28 01:32:00,31.0,29.0,29.80,NW,326,4.0,9.0,94,0.00,,,0.19,,2013-02-28 07:32:00,
2013-02-28 01:41:00,31.0,29.0,29.80,NW,326,4.0,9.0,94,0.00,,,0.19,,2013-02-28 07:41:00,
2013-02-28 01:51:00,30.0,28.0,29.80,NW,319,2.0,7.0,94,0.00,,,0.19,,2013-02-28 07:51:00,
2013-02-28 02:01:00,30.0,28.0,29.80,West,277,3.0,6.0,94,0.00,,,0.19,,2013-02-28 08:01:00,
2013-02-28 02:11:00,30.0,28.0,29.80,West,277,3.0,6.0,94,0.00,,,0.19,,2013-02-28 08:11:00,
2013-02-28 02:22:00,31.0,29.0,29.81,NW,304,3.0,6.0,94,0.00,,,0.19,,2013-02-28 08:22:00,
2013-02-28 02:32:00,31.0,29.0,29.81,NNW,330,3.0,6.0,94,0.00,,,0.19,,2013-02-28 08:32:00,
2013-02-28 02:42:00,31.0,29.0,29.81,NNW,330,3.0,6.0,94,0.00,,,0.19,,2013-02-28 08:42:00,
2013-02-28 02:52:00,31.0,29.0,29.81,NW,319,3.0,6.0,94,0.00,,,0.19,,2013-02-28 08:52:00,
2013-02-28 03:03:00,31.0,29.0,29.81,NW,323,3.0,7.0,93,0.00,,,0.19,,2013-02-28 09:03:00,
2013-02-28 03:11:00,31.0,29.0,29.81,NW,323,3.0,7.0,93,0.00,,,0.19,,2013-02-28 09:11:00,
2013-02-28 03:22:00,31.0,29.0,29.82,NW,326,3.0,6.0,93,0.00,,,0.19,,2013-02-28 09:22:00,
2013-02-28 03:32:00,32.0,30.0,29.82,NW,321,4.0,8.0,93,0.00,,,0.19,,2013-02-28 09:32:00,
2013-02-28 03:42:00,32.0,30.0,29.82,NW,321,4.0,8.0,93,0.00,,,0.19,,2013-02-28 09:42:00,
2013-02-28 03:52:00,32.0,30.0,29.82,NNW,331,4.0,8.0,93,0.00,,,0.19,,2013-02-28 09:52:00,
2013-02-28 04:02:00,32.0,30.0,29.83,NW,306,4.0,7.0,93,0.00,,,0.19,,2013-02-28 10:02:00,
2013-02-28 04:11:00,32.0,30.0,29.83,NW,306,4.0,7.0,93,0.00,,,0.19,,2013-02-28 10:11:00,
2013-02-28 04:22:00,32.0,30.0,29.83,NNW,332,3.0,7.0,92,0.00,,,0.19,,2013-02-28 10:22:00,
2013-02-28 04:32:00,32.0,30.0,29.84,WNW,289,3.0,7.0,92,0.00,,,0.19,,2013-02-28 10:32:00,
2013-02-28 04:42:00,32.0,30.0,29.84,WNW,289,3.0,7.0,92,0.00,,,0.19,,2013-02-28 10:42:00,
2013-02-28 04:52:00,32.0,30.0,29.84,NNW,342,5.0,9.0,92,0.00,,,0.19,,2013-02-28 10:52:00,
2013-02-28 05:01:00,32.0,30.0,29.85,WNW,295,4.0,9.0,92,0.00,,,0.19,,2013-02-28 11:01:00,
2013-02-28 05:11:00,32.0,30.0,29.85,WNW,295,4.0,9.0,92,0.00,,,0.19,,2013-02-28 11:11:00,
2013-02-28 05:22:00,32.0,30.0,29.85,NW,311,5.0,10.0,92,0.00,,,0.19,,2013-02-28 11:22:00,
2013-02-28 05:32:00,32.0,30.0,29.86,NNW,339,5.0,10.0,92,0.00,,,0.19,,2013-02-28 11:32:00,
2013-02-28 05:42:00,32.0,30.0,29.86,NNW,339,5.0,10.0,92,0.00,,,0.19,,2013-02-28 11:42:00,
2013-02-28 05:52:00,32.0,30.0,29.86,WNW,287,5.0,8.0,92,0.00,,,0.19,,2013-02-28 11:52:00,
2013-02-28 06:02:00,31.0,29.0,29.87,WNW,298,4.0,8.0,92,0.00,,,0.19,,2013-02-28 12:02:00,
2013-02-28 06:11:00,31.0,29.0,29.87,WNW,298,4.0,8.0,92,0.00,,,0.19,,2013-02-28 12:11:00,
2013-02-28 06:22:00,31.0,29.0,29.88,NNW,327,4.0,8.0,92,0.00,,,0.19,,2013-02-28 12:22:00,
2013-02-28 06:32:00,31.0,29.0,29.88,North,350,4.0,7.0,92,0.00,,,0.19,,2013-02-28 12:32:00,
2013-02-28 06:42:00,31.0,29.0,29.88,North,350,4.0,7.0,92,0.00,,,0.19,,2013-02-28 12:42:00,
2013-02-28 06:52:00,31.0,29.0,29.88,NW,325,4.0,8.0,92,0.00,,,0.19,,2013-02-28 12:52:00,
2013-02-28 07:02:00,31.0,29.0,29.89,NW,314,3.0,9.0,92,0.00,,,0.19,,2013-02-28 13:02:00,
2013-02-28 07:11:00,31.0,29.0,29.89,NW,314,3.0,9.0,92,0.00,,,0.19,,2013-02-28 13:11:00,
2013-02-28 07:22:00,31.0,29.0,29.90,NW,315,4.0,9.0,92,0.00,,,0.19,,2013-02-28 13:22:00,
2013-02-28 07:32:00,31.0,29.0,29.91,North,349,4.0,7.0,92,0.00,,,0.19,,2013-02-28 13:32:00,
2013-02-28 07:42:00,31.0,29.0,29.91,North,349,4.0,7.0,92,0.00,,,0.19,,2013-02-28 13:42:00,
2013-02-28 07:52:00,31.0,29.0,29.91,NW,326,4.0,8.0,92,0.00,,,0.19,,2013-02-28 13:52:00,
2013-02-28 08:01:00,31.0,29.0,29.92,NNW,347,4.0,8.0,93,0.00,,,0.19,,2013-02-28 14:01:00,
2013-02-28 08:11:00,31.0,29.0,29.92,NNW,347,4.0,8.0,93,0.00,,,0.19,,2013-02-28 14:11:00,
2013-02-28 08:22:00,31.0,29.0,29.93,NW,309,4.0,8.0,92,0.00,,,0.19,,2013-02-28 14:22:00,
2013-02-28 08:32:00,31.0,29.0,29.93,NW,317,5.0,8.0,92,0.00,,,0.19,,2013-02-28 14:32:00,
2013-02-28 08:42:00,31.0,29.0,29.93,NW,317,5.0,8.0,92,0.00,,,0.19,,2013-02-28 14:42:00,
2013-02-28 08:52:00,31.0,29.0,29.93,NNW,335,4.0,8.0,92,0.00,,,0.19,,2013-02-28 14:52:00,
2013-02-28 09:02:00,32.0,30.0,29.94,NW,309,4.0,7.0,92,0.00,,,0.19,,2013-02-28 15:02:00,
2013-02-28 09:11:00,32.0,30.0,29.94,NW,309,4.0,7.0,92,0.00,,,0.19,,2013-02-28 15:11:00,
2013-02-28 09:21:00,32.0,30.0,29.94,NW,320,4.0,8.0,91,0.00,,,0.19,,2013-02-28 15:21:00,
2013-02-28 09:32:00,32.0,30.0,29.94,NW,310,4.0,8.0,91,0.00,,,0.19,,2013-02-28 15:32:00,
2013-02-28 09:42:00,32.0,30.0,29.94,NW,310,4.0,8.0,91,0.00,,,0.19,,2013-02-28 15:42:00,
2013-02-28 09:52:00,32.0,29.0,29.95,NW,311,4.0,7.0,90,0.01,,,0.20,,2013-02-28 15:52:00,
2013-02-28 10:01:00,33.0,30.0,29.96,WNW,297,5.0,8.0,89,0.01,,,0.20,,2013-02-28 16:01:00,
2013-02-28 10:11:00,33.0,30.0,29.96,WNW,297,5.0,8.0,89,0.01,,,0.20,,2013-02-28 16:11:00,
2013-02-28 10:22:00,33.0,30.0,29.96,NNW,343,5.0,9.0,88,0.01,,,0.20,,2013-02-28 16:22:00,
2013-02-28 10:32:00,33.0,30.0,29.96,NW,323,5.0,9.0,87,0.01,,,0.20,,2013-02-28 16:32:00,
2013-02-28 10:42:00,33.0,30.0,29.96,NW,323,5.0,9.0,87,0.01,,,0.20,,2013-02-28 16:42:00,
2013-02-28 10:52:00,34.0,31.0,29.96,NNW,342,6.0,9.0,87,0.00,,,0.20,,2013-02-28 16:52:00,
2013-02-28 11:02:00,34.0,30.0,29.97,NNW,340,6.0,9.0,86,0.00,,,0.20,,2013-02-28 17:02:00,
2013-02-28 11:12:00,34.0,30.0,29.97,NNW,335,5.0,10.0,86,0.00,,,0.20,,2013-02-28 17:12:00,
2013-02-28 11:22:00,34.0,30.0,29.97,NNW,335,5.0,10.0,86,0.00,,,0.20,,2013-02-28 17:22:00,
2013-02-28 11:32:00,34.0,31.0,29.98,NNW,338,4.0,8.0,87,0.01,,,0.19,,2013-02-28 17:32:00,
2013-02-28 11:42:00,34.0,31.0,29.98,NNW,338,4.0,8.0,87,0.01,,,0.19,,2013-02-28 17:42:00,
2013-02-28 11:52:00,34.0,30.0,29.98,North,360,3.0,8.0,86,0.02,,,0.20,,2013-02-28 17:52:00,
2013-02-28 12:02:00,34.0,30.0,29.98,North,350,5.0,11.0,85,0.03,,,0.21,,2013-02-28 18:02:00,
2013-02-28 12:11:00,34.0,30.0,29.98,North,350,5.0,11.0,85,0.03,,,0.21,,2013-02-28 18:11:00,
2013-02-28 12:22:00,34.0,30.0,29.98,North,350,5.0,11.0,85,0.03,,,0.21,,2013-02-28 18:22:00,
2013-02-28 12:32:00,35.0,31.0,29.98,NNW,346,5.0,9.0,85,0.03,,,0.20,,2013-02-28 18:32:00,
2013-02-28 12:42:00,35.0,31.0,29.98,NNW,346,5.0,9.0,85,0.03,,,0.20,,2013-02-28 18:42:00,
2013-02-28 12:52:00,35.0,31.0,29.98,NNW,346,5.0,9.0,85,0.03,,,0.20,,2013-02-28 18:52:00,
2013-02-28 13:02:00,35.0,31.0,29.98,NNW,346,5.0,9.0,85,0.03,,,0.20,,2013-02-28 19:02:00,
2013-02-28 13:11:00,35.0,31.0,29.98,NNW,346,5.0,9.0,85,0.03,,,0.20,,2013-02-28 19:11:00,
2013-02-28 13:22:00,34.0,31.0,29.99,North,5,6.0,12.0,87,0.04,,,0.23,,2013-02-28 19:22:00,
2013-02-28 13:32:00,34.0,31.0,29.99,NNW,336,6.0,11.0,89,0.03,,,0.19,,2013-02-28 19:32:00,
2013-02-28 13:42:00,34.0,31.0,29.99,NNW,336,6.0,11.0,89,0.03,,,0.19,,2013-02-28 19:42:00,
2013-02-28 13:51:00,34.0,31.0,29.99,NW,319,5.0,11.0,89,0.03,,,0.20,,2013-02-28 19:51:00,
2013-02-28 14:01:00,34.0,31.0,29.99,NW,315,5.0,8.0,89,0.03,,,0.21,,2013-02-28 20:01:00,
2013-02-28 14:12:00,34.0,31.0,29.99,NW,315,5.0,8.0,89,0.03,,,0.21,,2013-02-28 20:12:00,
2013-02-28 14:22:00,34.0,31.0,30.00,NNW,327,4.0,10.0,88,0.03,,,0.22,,2013-02-28 20:22:00,
2013-02-28 14:32:00,34.0,31.0,30.00,NW,324,5.0,9.0,88,0.04,,,0.20,,2013-02-28 20:32:00,
2013-02-28 14:42:00,34.0,31.0,30.00,NW,324,5.0,9.0,88,0.04,,,0.20,,2013-02-28 20:42:00,
2013-02-28 14:52:00,34.0,31.0,30.01,NW,319,4.0,10.0,88,0.03,,,0.20,,2013-02-28 20:52:00,
2013-02-28 15:02:00,34.0,31.0,30.01,West,271,4.0,7.0,88,0.02,,,0.20,,2013-02-28 21:02:00,
2013-02-28 15:11:00,34.0,31.0,30.01,West,271,4.0,7.0,88,0.02,,,0.20,,2013-02-28 21:11:00,
2013-02-28 15:22:00,34.0,31.0,30.01,NW,309,4.0,8.0,88,0.02,,,0.21,,2013-02-28 21:22:00,
2013-02-28 15:32:00,34.0,30.0,30.02,NW,323,4.0,8.0,86,0.01,,,0.18,,2013-02-28 21:32:00,
2013-02-28 15:42:00,34.0,30.0,30.02,NW,323,4.0,8.0,86,0.01,,,0.18,,2013-02-28 21:42:00,
2013-02-28 15:52:00,34.0,30.0,30.02,NNW,336,4.0,11.0,84,0.02,,,0.19,,2013-02-28 21:52:00,
2013-02-28 16:01:00,34.0,30.0,30.02,North,355,4.0,8.0,84,0.02,,,0.19,,2013-02-28 22:01:00,
2013-02-28 16:11:00,34.0,30.0,30.02,North,355,4.0,8.0,84,0.02,,,0.19,,2013-02-28 22:11:00,
2013-02-28 16:21:00,34.0,30.0,30.02,North,355,4.0,8.0,84,0.02,,,0.19,,2013-02-28 22:21:00,
2013-02-28 16:32:00,33.0,29.0,30.03,NNW,342,4.0,7.0,86,0.01,,,0.17,,2013-02-28 22:32:00,
2013-02-28 16:42:00,33.0,29.0,30.03,NNW,342,4.0,7.0,86,0.01,,,0.17,,2013-02-28 22:42:00,
2013-02-28 16:52:00,33.0,30.0,30.03,NW,309,1.0,4.0,87,0.00,,,0.17,,2013-02-28 22:52:00,
2013-02-28 17:01:00,33.0,29.0,30.03,NW,317,3.0,6.0,86,0.00,,,0.17,,2013-02-28 23:01:00,
2013-02-28 17:11:00,33.0,29.0,30.03,NW,317,3.0,6.0,86,0.00,,,0.17,,2013-02-28 23:11:00,
2013-02-28 17:22:00,33.0,29.0,30.04,NNW,346,3.0,5.0,84,0.01,,,0.18,,2013-02-28 23:22:00,
2013-02-28 17:32:00,33.0,29.0,30.04,NW,321,3.0,7.0,84,0.01,,,0.17,,2013-02-28 23:32:00,
2013-02-28 17:41:00,33.0,29.0,30.04,NW,321,3.0,7.0,84,0.01,,,0.17,,2013-02-28 23:41:00,
2013-02-28 17:52:00,33.0,29.0,30.05,NW,313,1.0,4.0,84,0.01,,,0.17,,2013-02-28 23:52:00,
2013-02-28 18:01:00,33.0,29.0,30.05,NW,322,2.0,4.0,85,0.01,,,0.17,,2013-03-01 00:01:00,
2013-02-28 18:11:00,33.0,29.0,30.05,NW,322,2.0,4.0,85,0.01,,,0.17,,2013-03-01 00:11:00,
2013-02-28 18:22:00,33.0,30.0,30.05,NW,312,2.0,5.0,87,0.00,,,0.17,,2013-03-01 00:22:00,
2013-02-28 18:32:00,33.0,30.0,30.05,North,360,1.0,5.0,88,0.00,,,0.17,,2013-03-01 00:32:00,
2013-02-28 18:41:00,33.0,30.0,30.05,North,360,1.0,5.0,88,0.00,,,0.17,,2013-03-01 00:41:00,
2013-02-28 18:51:00,32.0,29.0,30.06,NNW,348,2.0,4.0,89,0.00,,,0.17,,2013-03-01 00:51:00,
2013-02-28 19:01:00,32.0,29.0,30.06,NNW,336,2.0,4.0,90,0.00,,,0.17,,2013-03-01 01:01:00,
2013-02-28 19:11:00,32.0,29.0,30.06,NNW,336,2.0,4.0,90,0.00,,,0.17,,2013-03-01 01:11:00,
2013-02-28 19:21:00,32.0,29.0,30.06,NNW,338,1.0,4.0,90,0.00,,,0.17,,2013-03-01 01:21:00,
2013-02-28 19:32:00,32.0,29.0,30.06,NW,315,2.0,4.0,89,0.00,,,0.17,,2013-03-01 01:32:00,
2013-02-28 19:42:00,32.0,29.0,30.06,NW,315,2.0,4.0,89,0.00,,,0.17,,2013-03-01 01:42:00,
2013-02-28 19:51:00,32.0,29.0,30.06,NW,313,0.0,3.0,89,0.00,,,0.17,,2013-03-01 01:51:00,
2013-02-28 20:01:00,32.0,29.0,30.06,NW,313,0.0,1.0,89,0.00,,,0.17,,2013-03-01 02:01:00,
2013-02-28 20:11:00,32.0,29.0,30.06,NW,313,0.0,2.0,89,0.00,,,0.17,,2013-03-01 02:11:00,
2013-02-28 20:21:00,32.0,29.0,30.06,NW,313,0.0,2.0,89,0.00,,,0.17,,2013-03-01 02:21:00,
2013-02-28 20:32:00,32.0,29.0,30.06,NW,313,0.0,3.0,89,0.00,,,0.17,,2013-03-01 02:32:00,
2013-02-28 20:42:00,32.0,29.0,30.06,NW,313,0.0,3.0,89,0.00,,,0.17,,2013-03-01 02:42:00,
2013-02-28 20:52:00,32.0,29.0,30.06,NNW,348,0.0,3.0,87,0.00,,,0.17,,2013-03-01 02:52:00,
2013-02-28 21:02:00,32.0,28.0,30.06,NNW,331,2.0,5.0,85,0.00,,,0.17,,2013-03-01 03:02:00,
2013-02-28 21:11:00,32.0,28.0,30.06,NNW,331,2.0,5.0,85,0.00,,,0.17,,2013-03-01 03:11:00,
2013-02-28 21:21:00,32.0,28.0,30.07,NNW,348,3.0,6.0,86,0.00,,,0.17,,2013-03-01 03:21:00,
2013-02-28 21:32:00,32.0,29.0,30.07,North,355,0.0,5.0,87,0.00,,,0.16,,2013-03-01 03:32:00,
2013-02-28 21:42:00,32.0,29.0,30.07,North,355,0.0,5.0,87,0.00,,,0.16,,2013-03-01 03:42:00,
2013-02-28 21:51:00,31.0,28.0,30.07,SSE,147,1.0,6.0,87,0.00,,,0.16,,2013-03-01 03:51:00,
2013-02-28 22:01:00,31.0,28.0,30.08,SSE,160,1.0,6.0,88,0.00,,,0.16,,2013-03-01 04:01:00,
2013-02-28 22:11:00,31.0,28.0,30.08,SSE,160,1.0,6.0,88,0.00,,,0.16,,2013-03-01 04:11:00,
2013-02-28 22:21:00,30.0,27.0,30.09,SSE,161,3.0,9.0,88,0.00,,,0.16,,2013-03-01 04:21:00,
2013-02-28 22:32:00,30.0,27.0,30.09,ESE,111,2.0,8.0,87,0.00,,,0.16,,2013-03-01 04:32:00,
2013-02-28 22:42:00,30.0,27.0,30.09,ESE,111,2.0,8.0,87,0.00,,,0.16,,2013-03-01 04:42:00,
2013-02-28 22:52:00,30.0,26.0,30.09,SSE,157,1.0,5.0,86,0.00,,,0.16,,2013-03-01 04:52:00,
2013-02-28 23:02:00,30.0,26.0,30.09,SE,145,1.0,6.0,84,0.00,,,0.16,,2013-03-01 05:02:00,
2013-02-28 23:11:00,30.0,26.0,30.09,SE,145,1.0,6.0,84,0.00,,,0.16,,2013-03-01 05:11:00,
2013-02-28 23:22:00,30.0,25.0,30.09,SE,132,2.0,12.0,81,0.00,,,0.16,,2013-03-01 05:22:00,
2013-02-28 23:32:00,29.0,24.0,30.09,SSE,162,2.0,7.0,81,0.00,,,0.16,,2013-03-01 05:32:00,
2013-02-28 23:42:00,29.0,24.0,30.09,SSE,162,2.0,7.0,81,0.00,,,0.16,,2013-03-01 05:42:00,
2013-02-28 23:52:00,29.0,24.0,30.09,South,172,1.0,9.0,81,0.00,,,0.16,,2013-03-01 05:52:00,